Weather Roundup
Issued by NWS Chicago, IL

Home | Current Version | Previous Version | Graphics & Text | Print | Product List | Glossary On
Versions: 1 2 3 4 5 6 7 8 9 10 11 12 13 14 15 16 17 18 19 20 21 22 23 24 25 26 27 28 29 30 31 32 33 34 35 36 37 38 39 40 41 42 43 44 45 46 47 48 49 50
144
NZUS59 KLOT 022303
HRRLOT

CHICAGO AREA WEATHER ROUNDUP
NATIONAL WEATHER SERVICE CHICAGO/ROMEOVILLE IL
600 PM CDT MON MAY 02 2016

NOTE: "FAIR" INDICATES FEW OR NO CLOUDS BELOW 12,000 FEET WITH NO
SIGNIFICANT WEATHER AND/OR OBSTRUCTIONS TO VISIBILITY.

* THESE STATIONS ARE NOT UNDER NWS QUALITY CONTROL. THEY ALSO MAY NOT
  REPORT WEATHER SUCH AS PRECIPITATION OR FOG.

ILZ005-006-012>014-019>023-030000-
NORTHEAST ILLINOIS

CITY           SKY/WX    TMP DP  RH WIND       PRES   REMARKS
OHARE          PTSUNNY   56  32  40 NE12      30.01S
MIDWAY         PTSUNNY   55  36  48 NE12      30.02S
AURORA         SUNNY     59  34  39 NE15      30.02R
LANSING*       CLOUDY    52  35  52 N9        30.02S
WAUKEGAN       MOSUNNY   54  36  50 NE7       30.02S
DUPAGE AIRPORT SUNNY     57  31  37 NE13      30.01R
WHEELING       PTSUNNY   55  31  39 NE7       30.03F
$$

WIZ051-052-058>065-066-070>072-030000-
SOUTHEAST WISCONSIN

CITY           SKY/WX    TMP DP  RH WIND       PRES   REMARKS
MILWAUKEE      MOSUNNY   54  34  46 NE14      30.03S
KENOSHA*       SUNNY     56  35  45 E13       30.02S
RACINE*        SUNNY     53  34  48 NE10      30.04S
BURLINGTON     SUNNY     59  29  32 E12       30.01S
WAUKESHA       MOSUNNY   57  28  33 NE14      30.02F
$$

INZ001>003-010>013-019-020-030000-
NORTHWEST INDIANA

CITY           SKY/WX    TMP DP  RH WIND       PRES   REMARKS
GARY*          PTSUNNY   50  43  76 N10       30.03S
MICHIGAN CITY* NOT AVBL
RENSSELAER*    NOT AVBL
VALPARAISO     CLOUDY    49  39  68 N8        30.01S
$$

LMZ740>746-030000-
SOUTHERN LAKE MICHIGAN

STATION/POSITION TIME  SKY/WX   TEMP WIND        PRES    VSBY
                                AIR  DIR/SP/G
                 (UTC)          (F)  (DEG/KT/KT) (MB)    (MI)
HARRISON CRIB    2200            46  350/  9/ 10   N/A
BURNHAM HARBOR   2300            49  360/  6/ 10   N/A
CALUMET HARBOR   2200            48              1016.2F
BURNS HARBOR     2227            46   50/  8/ 11 1017.3S
MICHIGAN CITY    2200            45   20/  8/  9   N/A
$$

ABBREVIATIONS USED IN REMARKS
   TC - TEMPERATURE IN CELSIUS
  WCI - WIND CHILL INDEX
   HX - HEAT INDEX
  VSB - VISIBILITY
$$




USA.gov is the U.S. government's official web portal to all federal, state and local government web resources and services.